sat.trackr.live / text

‹ back to catalog

STARLINK-34610

NORAD 65034 · 2025-161V

PAYLOAD ACTIVE UNKNOWN

§ Identity

Operator
Country
US
Launch date
2025-07-30
Launch site
AFWTR
Launch vehicle
Mass (kg)
RCS (m²)

Purposes: comms

External: N2YO · Heavens-Above · Gunter

§ Orbital elements

Epoch: 2026-05-24T19:32:23.118144Z

Period
94.11 min
Inclination
53.1611°
Eccentricity
0.0001238
Mean motion
15.30204180 rev/d
Perigee alt
474.4 km
Apogee alt
476.1 km
Semi-major
6,853.3 km
B*
3.4325e-4
RAAN
300.6946°
Arg perigee
81.0464°
Mean anomaly
279.0677°
Rev number
4,588

§ Raw data

STARLINK-346101 65034U 25161V   26144.81415646  .00009822  00000+0  34325-3 0  99952 65034  53.1611 300.6946 0001238  81.0464 279.0677 15.30204180 45889

JSON: /api/v1/satellites/65034 · /tle

For live sub-satellite position, see the globe view (requires WebGL).

§ Visibility from observer

Set your observer location to see the next 7 days of passes ≥ 10°. The values pass through the URL so the page stays shareable.

No JS? Fill the form by hand. The geolocation button needs JavaScript.